﻿測定場所 (Monitoring sites),日付 (Measurement date),時間 (Measurement time),線量率 最大値 (max) μGy/h,線量率 最小値 (min) μGy/h,線量率 平均値 (average) μGy/h,
大田 (Ota),2018-12-16,23:01～24:00,0.0365,0.0323,0.0344,
大田 (Ota),2018-12-16,22:01～23:00,0.0366,0.0328,0.0346,
大田 (Ota),2018-12-16,21:01～22:00,0.0368,0.0333,0.0348,
大田 (Ota),2018-12-16,20:01～21:00,0.0367,0.0331,0.0347,
大田 (Ota),2018-12-16,19:01～20:00,0.0375,0.0323,0.0346,
大田 (Ota),2018-12-16,18:01～19:00,0.0371,0.0314,0.0346,
大田 (Ota),2018-12-16,17:01～18:00,0.0367,0.0332,0.0348,
大田 (Ota),2018-12-16,16:01～17:00,0.0372,0.0327,0.0352,
大田 (Ota),2018-12-16,15:01～16:00,0.0387,0.0341,0.0363,
大田 (Ota),2018-12-16,14:01～15:00,0.0394,0.0335,0.0363,
大田 (Ota),2018-12-16,13:01～14:00,0.0372,0.0336,0.0353,
大田 (Ota),2018-12-16,12:01～13:00,0.0377,0.0327,0.0348,
大田 (Ota),2018-12-16,11:01～12:00,0.0366,0.0334,0.0350,
大田 (Ota),2018-12-16,10:01～11:00,0.0370,0.0325,0.0350,
大田 (Ota),2018-12-16,09:01～10:00,0.0367,0.0331,0.0350,
大田 (Ota),2018-12-16,08:01～09:00,0.0369,0.0327,0.0349,
大田 (Ota),2018-12-16,07:01～08:00,0.0373,0.0327,0.0346,
大田 (Ota),2018-12-16,06:01～07:00,0.0361,0.0316,0.0341,
大田 (Ota),2018-12-16,05:01～06:00,0.0362,0.0325,0.0341,
大田 (Ota),2018-12-16,04:01～05:00,0.0364,0.0317,0.0341,
大田 (Ota),2018-12-16,03:01～04:00,0.0365,0.0321,0.0339,
大田 (Ota),2018-12-16,02:01～03:00,0.0355,0.0311,0.0338,
大田 (Ota),2018-12-16,01:01～02:00,0.0366,0.0311,0.0336,
大田 (Ota),2018-12-16,00:01～01:00,0.0364,0.0317,0.0338,
大田 (Ota),2018-12-15,23:01～24:00,0.0367,0.0324,0.0338,
大田 (Ota),2018-12-15,22:01～23:00,0.0358,0.0314,0.0338,
大田 (Ota),2018-12-15,21:01～22:00,0.0364,0.0318,0.0339,
大田 (Ota),2018-12-15,20:01～21:00,0.0355,0.0311,0.0339,
大田 (Ota),2018-12-15,19:01～20:00,0.0357,0.0317,0.0338,
大田 (Ota),2018-12-15,18:01～19:00,0.0355,0.0322,0.0338,
大田 (Ota),2018-12-15,17:01～18:00,0.0352,0.0321,0.0336,
大田 (Ota),2018-12-15,16:01～17:00,0.0369,0.0316,0.0339,
大田 (Ota),2018-12-15,15:01～16:00,0.0360,0.0319,0.0338,
大田 (Ota),2018-12-15,14:01～15:00,0.0358,0.0326,0.0342,
大田 (Ota),2018-12-15,13:01～14:00,0.0361,0.0321,0.0340,
大田 (Ota),2018-12-15,12:01～13:00,0.0364,0.0318,0.0340,
大田 (Ota),2018-12-15,11:01～12:00,0.0358,0.0324,0.0341,
大田 (Ota),2018-12-15,10:01～11:00,0.0363,0.0320,0.0341,
大田 (Ota),2018-12-15,09:01～10:00,0.0367,0.0322,0.0344,
大田 (Ota),2018-12-15,08:01～09:00,0.0361,0.0321,0.0343,
大田 (Ota),2018-12-15,07:01～08:00,0.0365,0.0309,0.0344,
大田 (Ota),2018-12-15,06:01～07:00,0.0359,0.0324,0.0343,
大田 (Ota),2018-12-15,05:01～06:00,0.0366,0.0320,0.0343,
大田 (Ota),2018-12-15,04:01～05:00,0.0364,0.0315,0.0343,
大田 (Ota),2018-12-15,03:01～04:00,0.0364,0.0325,0.0344,
大田 (Ota),2018-12-15,02:01～03:00,0.0364,0.0315,0.0344,
大田 (Ota),2018-12-15,01:01～02:00,0.0368,0.0319,0.0343,
大田 (Ota),2018-12-15,00:01～01:00,0.0369,0.0324,0.0347,
大田 (Ota),2018-12-14,23:01～24:00,0.0360,0.0314,0.0344,
大田 (Ota),2018-12-14,22:01～23:00,0.0369,0.0315,0.0344,
大田 (Ota),2018-12-14,21:01～22:00,0.0363,0.0324,0.0343,
大田 (Ota),2018-12-14,20:01～21:00,0.0358,0.0322,0.0342,
大田 (Ota),2018-12-14,19:01～20:00,0.0364,0.0325,0.0345,
大田 (Ota),2018-12-14,18:01～19:00,0.0359,0.0318,0.0341,
大田 (Ota),2018-12-14,17:01～18:00,0.0362,0.0317,0.0339,
大田 (Ota),2018-12-14,16:01～17:00,0.0366,0.0322,0.0342,
大田 (Ota),2018-12-14,15:01～16:00,0.0357,0.0320,0.0343,
大田 (Ota),2018-12-14,14:01～15:00,0.0368,0.0325,0.0344,
大田 (Ota),2018-12-14,13:01～14:00,0.0378,0.0320,0.0345,
大田 (Ota),2018-12-14,12:01～13:00,0.0368,0.0317,0.0343,
大田 (Ota),2018-12-14,11:01～12:00,0.0370,0.0322,0.0343,
大田 (Ota),2018-12-14,10:01～11:00,0.0363,0.0324,0.0345,
大田 (Ota),2018-12-14,09:01～10:00,0.0373,0.0336,0.0350,
大田 (Ota),2018-12-14,08:01～09:00,0.0371,0.0318,0.0344,
大田 (Ota),2018-12-14,07:01～08:00,0.0367,0.0320,0.0341,
大田 (Ota),2018-12-14,06:01～07:00,0.0370,0.0323,0.0344,
大田 (Ota),2018-12-14,05:01～06:00,0.0376,0.0323,0.0345,
大田 (Ota),2018-12-14,04:01～05:00,0.0378,0.0329,0.0344,
大田 (Ota),2018-12-14,03:01～04:00,0.0366,0.0324,0.0348,
大田 (Ota),2018-12-14,02:01～03:00,0.0365,0.0325,0.0344,
大田 (Ota),2018-12-14,01:01～02:00,0.0360,0.0318,0.0341,
大田 (Ota),2018-12-14,00:01～01:00,0.0355,0.0322,0.0338,
大田 (Ota),2018-12-13,23:01～24:00,0.0356,0.0320,0.0340,
大田 (Ota),2018-12-13,22:01～23:00,0.0368,0.0317,0.0338,
大田 (Ota),2018-12-13,21:01～22:00,0.0357,0.0319,0.0339,
大田 (Ota),2018-12-13,20:01～21:00,0.0357,0.0316,0.0339,
大田 (Ota),2018-12-13,19:01～20:00,0.0370,0.0320,0.0339,
大田 (Ota),2018-12-13,18:01～19:00,0.0365,0.0315,0.0337,
大田 (Ota),2018-12-13,17:01～18:00,0.0362,0.0310,0.0340,
大田 (Ota),2018-12-13,16:01～17:00,0.0361,0.0322,0.0341,
大田 (Ota),2018-12-13,15:01～16:00,0.0361,0.0320,0.0340,
大田 (Ota),2018-12-13,14:01～15:00,0.0353,0.0316,0.0335,
大田 (Ota),2018-12-13,13:01～14:00,0.0356,0.0318,0.0337,
大田 (Ota),2018-12-13,12:01～13:00,0.0360,0.0320,0.0338,
大田 (Ota),2018-12-13,11:01～12:00,0.0366,0.0315,0.0341,
大田 (Ota),2018-12-13,10:01～11:00,0.0359,0.0317,0.0342,
大田 (Ota),2018-12-13,09:01～10:00,0.0377,0.0317,0.0340,
大田 (Ota),2018-12-13,08:01～09:00,0.0361,0.0317,0.0340,
大田 (Ota),2018-12-13,07:01～08:00,0.0366,0.0322,0.0340,
大田 (Ota),2018-12-13,06:01～07:00,0.0360,0.0316,0.0338,
大田 (Ota),2018-12-13,05:01～06:00,0.0365,0.0323,0.0343,
大田 (Ota),2018-12-13,04:01～05:00,0.0363,0.0323,0.0342,
大田 (Ota),2018-12-13,03:01～04:00,0.0364,0.0317,0.0339,
大田 (Ota),2018-12-13,02:01～03:00,0.0353,0.0318,0.0338,
大田 (Ota),2018-12-13,01:01～02:00,0.0364,0.0322,0.0340,
大田 (Ota),2018-12-13,00:01～01:00,0.0365,0.0319,0.0337,
大田 (Ota),2018-12-12,23:01～24:00,0.0361,0.0320,0.0338,
大田 (Ota),2018-12-12,22:01～23:00,0.0358,0.0323,0.0339,
大田 (Ota),2018-12-12,21:01～22:00,0.0359,0.0323,0.0339,
大田 (Ota),2018-12-12,20:01～21:00,0.0364,0.0312,0.0337,
大田 (Ota),2018-12-12,19:01～20:00,0.0361,0.0319,0.0339,
大田 (Ota),2018-12-12,18:01～19:00,0.0357,0.0325,0.0339,
大田 (Ota),2018-12-12,17:01～18:00,0.0354,0.0325,0.0340,
大田 (Ota),2018-12-12,16:01～17:00,0.0357,0.0311,0.0338,
大田 (Ota),2018-12-12,15:01～16:00,0.0365,0.0322,0.0338,
大田 (Ota),2018-12-12,14:01～15:00,0.0354,0.0317,0.0337,
大田 (Ota),2018-12-12,13:01～14:00,0.0353,0.0301,0.0324,
大田 (Ota),2018-12-12,12:01～13:00,0.0372,0.0323,0.0351,
大田 (Ota),2018-12-12,11:01～12:00,0.0443,0.0346,0.0389,
大田 (Ota),2018-12-12,10:01～11:00,0.0481,0.0407,0.0450,
大田 (Ota),2018-12-12,09:01～10:00,0.0485,0.0404,0.0449,
大田 (Ota),2018-12-12,08:01～09:00,0.0470,0.0389,0.0429,
大田 (Ota),2018-12-12,07:01～08:00,0.0436,0.0333,0.0389,
大田 (Ota),2018-12-12,06:01～07:00,0.0365,0.0324,0.0345,
大田 (Ota),2018-12-12,05:01～06:00,0.0402,0.0341,0.0365,
大田 (Ota),2018-12-12,04:01～05:00,0.0466,0.0360,0.0411,
大田 (Ota),2018-12-12,03:01～04:00,0.0482,0.0395,0.0444,
大田 (Ota),2018-12-12,02:01～03:00,0.0510,0.0408,0.0445,
大田 (Ota),2018-12-12,01:01～02:00,0.0515,0.0452,0.0476,
大田 (Ota),2018-12-12,00:01～01:00,0.0517,0.0449,0.0478,
大田 (Ota),2018-12-11,23:01～24:00,0.0488,0.0397,0.0441,
大田 (Ota),2018-12-11,22:01～23:00,0.0475,0.0382,0.0427,
大田 (Ota),2018-12-11,21:01～22:00,0.0476,0.0406,0.0441,
大田 (Ota),2018-12-11,20:01～21:00,0.0462,0.0394,0.0433,
大田 (Ota),2018-12-11,19:01～20:00,0.0426,0.0365,0.0395,
大田 (Ota),2018-12-11,18:01～19:00,0.0445,0.0359,0.0409,
大田 (Ota),2018-12-11,17:01～18:00,0.0441,0.0360,0.0397,
大田 (Ota),2018-12-11,16:01～17:00,0.0437,0.0354,0.0386,
大田 (Ota),2018-12-11,15:01～16:00,0.0406,0.0338,0.0370,
大田 (Ota),2018-12-11,14:01～15:00,0.0364,0.0328,0.0349,
大田 (Ota),2018-12-11,13:01～14:00,0.0369,0.0316,0.0345,
大田 (Ota),2018-12-11,12:01～13:00,0.0366,0.0326,0.0346,
大田 (Ota),2018-12-11,11:01～12:00,0.0368,0.0332,0.0348,
大田 (Ota),2018-12-11,10:01～11:00,0.0368,0.0329,0.0345,
大田 (Ota),2018-12-11,09:01～10:00,0.0363,0.0329,0.0346,
大田 (Ota),2018-12-11,08:01～09:00,0.0371,0.0322,0.0348,
大田 (Ota),2018-12-11,07:01～08:00,0.0358,0.0322,0.0344,
大田 (Ota),2018-12-11,06:01～07:00,0.0363,0.0319,0.0343,
大田 (Ota),2018-12-11,05:01～06:00,0.0361,0.0325,0.0344,
大田 (Ota),2018-12-11,04:01～05:00,0.0360,0.0321,0.0344,
大田 (Ota),2018-12-11,03:01～04:00,0.0364,0.0329,0.0346,
大田 (Ota),2018-12-11,02:01～03:00,0.0363,0.0327,0.0345,
大田 (Ota),2018-12-11,01:01～02:00,0.0363,0.0318,0.0345,
大田 (Ota),2018-12-11,00:01～01:00,0.0370,0.0318,0.0347,
大田 (Ota),2018-12-10,23:01～24:00,0.0363,0.0325,0.0343,
大田 (Ota),2018-12-10,22:01～23:00,0.0363,0.0323,0.0343,
大田 (Ota),2018-12-10,21:01～22:00,0.0359,0.0327,0.0344,
大田 (Ota),2018-12-10,20:01～21:00,0.0363,0.0315,0.0344,
大田 (Ota),2018-12-10,19:01～20:00,0.0364,0.0323,0.0341,
大田 (Ota),2018-12-10,18:01～19:00,0.0367,0.0323,0.0342,
大田 (Ota),2018-12-10,17:01～18:00,0.0363,0.0313,0.0343,
大田 (Ota),2018-12-10,16:01～17:00,0.0360,0.0322,0.0342,
大田 (Ota),2018-12-10,15:01～16:00,0.0366,0.0322,0.0343,
大田 (Ota),2018-12-10,14:01～15:00,0.0361,0.0328,0.0344,
大田 (Ota),2018-12-10,13:01～14:00,0.0370,0.0326,0.0345,
大田 (Ota),2018-12-10,12:01～13:00,0.0362,0.0330,0.0345,
大田 (Ota),2018-12-10,11:01～12:00,0.0360,0.0329,0.0344,
大田 (Ota),2018-12-10,10:01～11:00,0.0368,0.0324,0.0344,
大田 (Ota),2018-12-10,09:01～10:00,0.0363,0.0321,0.0343,
大田 (Ota),2018-12-10,08:01～09:00,0.0362,0.0316,0.0341,
大田 (Ota),2018-12-10,07:01～08:00,0.0361,0.0324,0.0343,
大田 (Ota),2018-12-10,06:01～07:00,0.0361,0.0326,0.0345,
大田 (Ota),2018-12-10,05:01～06:00,0.0359,0.0319,0.0342,
大田 (Ota),2018-12-10,04:01～05:00,0.0366,0.0326,0.0344,
大田 (Ota),2018-12-10,03:01～04:00,0.0363,0.0318,0.0344,
大田 (Ota),2018-12-10,02:01～03:00,0.0361,0.0324,0.0346,
大田 (Ota),2018-12-10,01:01～02:00,0.0369,0.0329,0.0345,
大田 (Ota),2018-12-10,00:01～01:00,0.0366,0.0325,0.0344,
